カタログに戻る

STARLINK-32898

運用中通信VLEO
NORAD 62998·PAYLOAD·🇺🇸 United States

打ち上げ Feb 11, 2025 から Cape Canaveral Space Force Station

Loading…

次のパス (今後24時間)

TLE

最新Source: CelesTrak SupGP

元期: Sep 15, 2026, 02:34 UTC

1 62998C 25031T   26258.10743056  .00046238  00000+0  16739-2 0  2582
2 62998  43.0006 153.8410 0001618 264.3702  18.7681 15.27572257    16

AllMySatでSTARLINK-32898をリアルタイム追跡

Download on the App Store